Temperature
20 20 20 20 24 24 23 23 23 23 23 22 21 22 22 22 22 20 17 17 17 17 17 17 17 17 17 17 17 17 17 17 17 17 17 17 17 17 17 17 17 17 17 17 17 17 17 18 18
20 21 20 22 25 24 23 23 23 23 22 21 21 21 22 21 19 18 17 17 17 17 16 17 17 17 17 17 17 17 17 17 17 17 17 17 17 17 17 17 17 17 17 17 17 17 17 17 17
21 21 22 24 24 24 23 23 23 22 21 22 22 21 21 20 19 18 17 17 17 17 16 17 17 17 17 17 17 17 17 17 17 17 17 17 17 17 17 17 17 17 17 17 17 17 17 17 17
20 21 23 24 23 23 23 23 23 23 22 21 22 21 20 18 18 18 17 17 17 17 16 16 17 17 17 17 17 17 17 17 17 17 17 17 17 17 17 17 17 17 17 17 17 17 17 17 17
21 23 24 24 23 23 24 23 23 23 22 22 22 22 20 18 18 17 17 17 17 17 17 16 17 17 17 17 17 17 17 17 17 17 17 17 17 17 17 17 17 17 17 17 17 17 17 17 17
22 24 24 23 23 23 23 23 23 23 22 21 21 21 20 18 18 17 17 17 17 17 17 17 17 17 17 17 17 17 17 17 17 17 17 17 17 17 16 17 17 17 16 16 17 17 17 17 17
23 24 24 24 23 23 23 23 23 23 22 21 21 22 20 18 18 17 17 17 17 17 17 17 17 17 17 17 17 17 17 17 17 17 16 17 16 16 16 16 16 16 16 16 16 16 16 16 16
22 24 24 24 23 23 23 23 22 23 22 21 21 22 21 19 18 17 17 17 17 17 17 17 17 17 17 16 17 17 17 17 16 16 16 16 16 16 16 16 16 16 16 16 16 16 16 16 16
22 24 23 23 23 23 23 23 22 21 21 21 20 21 20 18 18 18 17 17 17 17 17 17 17 17 17 16 16 16 16 16 16 16 16 16 16 16 16 16 16 16 16 16 16 16 16 16 16
23 24 23 24 24 24 23 23 22 22 22 21 20 19 19 18 18 18 18 18 18 17 17 17 17 17 17 16 16 16 16 16 16 16 16 16 16 16 16 16 16 16 16 16 16 16 16 15 15
24 24 23 23 23 23 23 23 22 23 23 22 21 20 19 18 18 18 18 18 18 18 17 17 17 17 17 16 16 16 16 16 16 16 16 16 16 16 16 15 15 15 15 15 15 15 15 15 15
24 23 23 23 22 23 23 23 23 22 22 21 21 20 19 19 19 18 18 18 18 17 17 17 17 17 17 16 16 16 16 16 16 16 16 16 16 16 15 15 15 15 15 15 15 15 15 15 15
24 23 22 22 22 22 22 22 22 22 21 21 20 20 19 19 19 19 18 18 18 17 17 17 17 17 17 16 16 16 16 16 16 16 16 16 16 15 15 15 15 15 15 15 15 15 15 15 15
23 23 23 22 22 22 23 22 22 22 21 20 20 20 19 19 19 19 18 18 18 18 17 17 17 17 16 16 16 16 16 16 16 15 15 15 15 15 15 15 15 15 15 15 15 15 15 15 15
22 23 23 23 23 23 23 23 23 22 21 21 20 20 19 19 18 18 18 18 18 18 17 17 17 16 16 16 16 16 16 16 15 15 15 15 15 15 15 15 15 15 15 15 15 15 14 14 14
24 24 23 23 23 22 23 23 23 21 21 21 21 20 19 19 18 18 18 18 18 18 17 17 17 16 16 16 16 16 15 15 15 15 15 15 15 15 15 15 15 15 14 14 14 14 14 14 14
24 23 23 23 23 23 23 23 23 21 21 21 21 20 20 19 19 18 18 18 18 17 17 17 17 16 16 16 16 15 15 15 15 15 15 15 15 15 15 15 14 14 14 14 14 14 14 14 14
23 24 24 24 24 23 23 23 23 21 21 22 22 21 20 20 19 19 18 18 18 17 17 17 17 16 16 16 16 15 15 15 15 15 15 15 15 15 14 14 14 14 14 14 14 14 14 14 14
24 24 24 24 23 23 23 23 24 22 22 22 22 21 21 20 19 19 18 18 18 17 17 17 17 16 16 16 16 15 15 15 15 15 15 15 15 14 14 14 14 14 14 14 14 14 14 13 13
24 23 24 23 23 23 23 23 24 23 22 22 22 22 21 20 19 19 18 18 18 17 17 17 17 16 16 16 16 16 15 15 15 15 15 15 14 14 14 14 14 14 14 14 13 13 13 13 13
23 23 24 23 23 23 23 24 24 24 22 21 21 21 21 20 20 19 18 18 18 17 17 17 17 16 16 16 16 16 15 15 15 15 14 14 14 14 14 14 14 14 13 13 13 13 13 13 13
23 23 23 23 23 23 23 23 24 24 23 22 21 21 20 20 19 19 18 18 18 17 17 17 17 16 16 16 16 16 15 15 15 14 14 14 14 14 14 13 13 13 13 13 13 13 13 13 13
23 23 23 23 23 23 23 23 24 24 23 23 22 21 20 19 19 19 18 18 18 17 17 17 17 16 16 16 16 15 15 15 15 14 14 14 14 14 13 13 13 13 13 13 13 13 13 12 12
22 23 22 23 23 22 23 23 24 25 24 24 23 21 20 19 19 18 18 18 17 17 17 17 17 16 16 16 16 15 15 15 15 14 14 14 14 13 13 13 13 13 13 12 12 12 12 12 12
23 23 22 22 22 23 23 23 24 24 23 23 22 21 20 19 19 18 17 17 17 17 17 17 17 16 16 16 16 15 15 15 14 14 14 14 13 13 13 13 13 12 12 12 12 12 12 12 12
23 23 22 22 22 23 22 23 24 23 22 21 21 20 20 19 18 18 17 17 17 17 17 17 17 16 16 16 15 15 15 15 14 14 14 13 13 13 13 13 13 12 12 12 12 12 12 12 12
23 23 23 23 23 22 23 23 23 22 22 21 21 20 19 19 18 18 17 17 17 17 17 17 17 16 16 16 15 15 15 14 14 14 14 13 13 13 13 13 12 12 12 12 12 12 12 12 11
23 23 23 22 21 22 22 23 23 22 22 22 21 21 20 19 18 18 17 17 17 17 17 17 16 16 16 15 15 15 15 15 14 14 14 13 13 13 13 12 12 12 12 12 11 11 11 11 11
22 22 22 22 22 21 22 23 23 23 22 22 22 20 19 19 18 18 17 17 17 17 17 17 16 16 15 15 15 15 14 14 14 14 13 13 13 12 12 12 12 12 11 11 11 11 11 11 11
22 23 22 22 22 22 22 22 22 22 22 21 20 20 19 18 18 17 17 17 16 16 16 16 16 16 15 15 15 15 14 14 14 13 13 13 12 12 12 12 11 11 11 11 11 11 11 11 11
Wind_Speed
4 2 1 2 2 4 7 5 4 4 4 5 6 5 6 6 5 6 4 4 5 5 6 7 9 9 10 10 10 10 11 11 11 11 11 11 11 12 12 11 11 11 12 12 12 12 12 11 11
2 1 1 1 1 6 7 6 7 6 6 6 6 6 6 7 6 6 4 4 4 6 6 9 9 10 10 11 11 11 11 11 12 12 12 12 12 12 12 12 12 12 12 13 12 12 12 12 12
2 1 1 1 3 5 7 7 8 8 6 3 4 5 5 5 5 5 5 5 5 6 7 9 9 10 10 11 11 11 12 11 12 12 12 12 12 12 12 12 12 12 12 12 12 11 12 12 12
1 1 1 4 9 7 7 7 7 7 5 4 4 6 6 5 4 6 6 5 6 6 7 9 8 9 10 11 11 11 11 11 12 12 12 12 12 12 12 12 12 12 11 11 11 11 11 12 12
1 1 4 7 8 7 6 6 5 5 4 5 5 7 7 5 6 7 7 6 6 6 6 8 8 9 9 10 10 10 10 11 12 12 12 12 13 12 12 12 12 11 12 11 11 11 11 12 12
1 1 4 7 8 6 5 5 5 6 7 6 6 7 6 6 7 6 6 5 5 6 6 7 8 8 8 9 10 10 10 10 11 11 12 12 12 12 12 12 12 12 12 11 11 11 11 12 12
1 2 5 8 7 6 5 4 4 5 6 5 4 6 7 7 7 6 6 5 5 5 5 5 6 7 7 8 9 9 10 10 10 11 11 11 12 12 12 12 12 12 12 12 12 12 12 13 13
1 3 6 6 6 6 5 5 4 4 5 5 3 4 6 8 8 7 6 6 5 5 4 5 5 5 5 7 8 8 9 10 10 10 10 9 10 11 10 11 12 11 11 12 12 12 13 12 12
1 3 5 5 5 6 6 6 4 3 6 4 3 4 7 11 10 8 6 5 5 4 4 4 4 5 5 6 7 7 8 8 7 8 7 5 7 8 9 12 11 11 11 11 11 11 11 10 10
2 3 4 4 4 6 6 5 5 5 5 5 5 6 9 11 9 8 6 5 5 4 4 3 3 4 5 5 5 5 6 6 6 6 6 6 6 7 8 10 10 10 10 10 9 8 6 4 7
3 4 5 4 4 5 6 5 4 4 3 4 6 8 10 10 8 7 6 5 4 4 3 2 3 3 3 4 4 4 4 4 5 6 6 5 5 4 5 5 6 7 6 7 7 5 6 7 7
5 5 4 4 5 5 5 4 4 3 2 3 5 9 10 10 9 7 5 5 4 4 3 2 2 3 3 3 4 3 3 3 4 4 5 4 4 3 4 4 5 4 5 6 6 5 6 6 7
5 5 4 4 5 4 4 3 2 3 2 4 7 9 10 9 8 7 5 5 4 4 3 3 2 2 3 3 3 3 3 3 4 4 3 4 3 3 3 4 4 4 4 5 5 5 6 6 6
5 5 4 4 4 4 4 3 3 3 5 7 8 9 9 8 8 7 6 5 4 4 4 3 3 3 2 2 2 3 3 3 3 3 4 4 4 3 3 4 4 4 4 4 4 5 5 4 5
5 5 4 4 4 3 4 4 4 4 7 7 8 8 8 7 7 6 6 5 4 4 4 3 3 3 2 2 3 3 3 3 3 3 4 4 4 3 3 3 3 3 4 4 4 5 4 4 4
5 5 5 4 4 4 5 4 4 5 7 7 7 8 8 7 7 6 6 6 5 4 4 4 3 3 3 3 3 3 3 3 3 3 3 4 4 4 3 3 3 3 3 3 3 2 3 3 3
6 5 5 5 5 4 6 4 4 6 7 7 8 8 9 8 8 7 7 7 6 5 4 5 4 4 3 3 3 2 3 3 3 2 2 2 3 3 3 2 2 2 2 2 2 2 2 3 3
6 5 5 5 5 6 6 6 4 6 7 8 8 9 9 9 9 8 8 7 6 5 5 5 5 4 4 3 3 2 2 2 2 2 2 3 2 3 2 2 2 2 1 1 1 2 2 2 2
4 5 5 4 3 6 7 8 6 7 8 9 9 9 10 10 8 8 8 8 7 6 6 6 5 5 4 3 3 2 2 2 2 2 2 2 2 2 2 1 1 1 1 1 1 2 1 1 1
7 7 6 3 3 5 7 9 8 7 9 9 9 10 10 9 9 9 9 9 8 8 7 6 6 5 5 3 3 2 2 1 1 1 2 2 2 2 1 1 1 1 1 1 1 1 0 0 1
9 8 6 5 3 5 7 8 8 6 7 8 9 9 9 10 10 10 10 9 9 8 8 6 6 6 5 5 3 3 2 2 2 1 1 1 2 2 1 1 0 1 0 0 1 1 2 1 2
8 5 6 6 6 5 5 6 5 6 7 8 9 9 9 10 10 10 10 10 10 9 8 8 7 6 6 6 5 4 3 2 2 1 1 1 1 1 1 0 0 0 1 1 1 1 2 2 2
4 3 5 7 8 8 7 7 4 5 6 7 8 8 9 9 10 10 10 10 10 9 8 8 8 7 6 6 6 5 4 2 2 2 2 2 1 1 1 0 0 1 1 1 1 2 2 2 3
5 5 5 6 7 8 6 7 5 4 4 3 5 7 8 8 9 9 8 9 9 8 8 8 8 7 7 7 6 5 4 3 2 2 2 2 2 1 1 0 0 1 1 1 1 2 2 3 3
8 7 5 6 6 5 3 6 4 0 1 3 3 4 6 7 8 8 8 8 9 9 9 9 9 8 8 7 7 6 5 4 4 3 3 3 2 2 1 1 1 1 1 1 1 2 2 2 2
9 9 6 4 5 3 4 6 2 1 1 2 3 2 4 6 6 7 8 8 8 9 9 9 10 9 8 8 7 6 5 4 3 4 3 3 2 2 2 2 1 1 1 1 1 2 2 2 2
7 9 7 7 7 7 5 4 3 1 1 1 2 2 3 5 6 7 7 7 7 8 9 10 9 9 9 8 7 6 5 5 4 4 3 3 2 2 3 2 2 1 1 1 1 1 2 2 2
5 5 6 7 5 7 6 7 4 2 2 1 1 2 2 4 5 6 6 6 6 6 7 9 9 9 8 8 7 6 6 5 5 4 4 3 3 3 3 3 2 2 1 1 1 2 2 2 2
7 7 7 6 6 6 6 3 0 2 2 2 1 1 2 3 4 5 6 6 5 5 6 7 8 8 8 8 8 7 6 5 5 5 4 4 4 4 4 3 3 2 2 2 2 2 2 3 3
7 8 9 8 7 7 7 4 2 1 2 2 2 2 1 2 3 4 5 5 5 5 5 6 7 8 8 8 7 7 6 5 5 5 5 5 4 4 4 4 3 3 2 2 3 3 3 3 3
Wind_Direction
160 171 221 248 184 93 79 79 85 96 76 65 67 68 68 52 42 75 83 64 53 64 66 66 54 53 57 62 68 69 70 71 70 72 73 73 73 74 72 70 68 66 68 70 70 72 71 70 70
150 189 233 249 134 107 89 92 94 84 99 104 84 78 76 71 66 90 95 76 67 71 68 63 59 59 60 62 64 67 68 71 72 73 74 74 71 71 71 69 68 68 68 69 69 70 69 68 67
159 256 298 86 89 94 105 104 103 101 105 100 89 67 61 74 84 91 90 101 88 78 74 69 60 61 61 62 62 65 68 71 72 73 74 72 71 71 69 67 68 69 68 68 67 68 69 68 66
216 196 139 100 96 84 99 114 121 119 104 82 101 92 84 70 83 95 104 106 94 85 79 76 64 62 61 62 64 67 70 71 71 72 72 70 70 69 69 68 67 67 67 67 67 67 68 67 65
236 190 125 111 100 98 101 111 128 117 105 99 104 99 98 93 96 104 109 102 95 88 82 83 70 62 62 65 66 68 69 73 72 70 70 70 69 68 67 66 65 66 66 65 67 67 69 69 66
184 175 132 120 112 111 112 122 129 113 111 111 108 104 100 116 120 114 111 106 97 91 86 87 87 69 63 65 68 69 71 71 69 67 67 69 69 69 67 64 65 66 66 66 65 68 73 71 69
102 115 119 124 124 121 117 127 127 119 117 111 114 108 120 132 127 126 119 110 99 92 88 87 91 97 89 72 69 68 68 69 68 66 64 67 69 69 67 65 65 65 65 65 65 70 73 72 69
92 130 127 130 134 121 124 131 113 119 111 116 136 118 131 143 141 135 125 117 108 99 91 86 85 82 86 89 79 71 69 70 72 70 67 70 79 77 72 70 66 65 65 66 67 71 72 72 68
154 144 138 137 139 129 137 140 124 115 122 123 112 93 114 139 147 143 135 126 113 100 94 89 88 81 76 77 84 87 84 78 87 85 80 80 74 72 72 61 64 65 66 67 67 71 74 77 77
151 142 126 119 129 133 143 143 141 146 137 136 132 120 131 147 154 153 146 135 123 114 102 95 88 83 81 77 82 79 81 77 69 71 72 68 70 68 70 77 71 72 76 77 71 76 86 74 75
117 115 121 123 127 136 143 145 158 159 142 149 151 147 149 156 161 158 145 132 122 118 108 107 105 93 82 85 78 79 81 77 67 61 67 69 75 78 73 76 83 78 76 72 75 78 67 67 65
122 111 124 130 139 150 148 148 155 182 111 119 144 149 155 164 165 164 154 142 133 121 114 108 110 112 101 92 87 85 82 76 69 58 58 68 71 65 67 69 65 67 67 63 62 61 67 65 67
135 127 123 131 144 154 157 166 169 166 144 141 144 155 163 169 167 163 158 154 147 132 126 115 118 125 117 104 98 99 89 76 78 64 57 64 71 72 73 74 70 65 68 67 59 62 62 61 60
132 136 142 152 163 175 181 183 192 179 165 161 162 165 169 173 176 171 169 167 162 150 141 128 127 126 119 112 113 99 99 90 73 68 60 65 68 72 75 72 71 66 60 60 63 64 63 61 58
147 152 164 183 188 181 195 203 207 182 175 177 179 174 172 177 182 186 179 177 171 157 152 139 133 137 126 109 101 99 100 91 77 68 59 65 65 70 72 70 74 72 70 71 65 63 65 65 64
178 189 188 177 188 190 223 220 173 171 184 190 189 182 182 185 192 190 187 185 178 170 160 147 150 150 135 120 115 111 99 87 78 70 59 66 66 64 68 68 71 72 72 75 72 60 66 66 57
198 200 197 180 191 199 223 238 172 180 197 202 199 194 192 189 194 191 190 190 186 182 174 162 162 158 146 136 127 109 98 87 80 78 71 65 65 67 75 70 67 79 85 83 86 82 72 67 57
195 203 205 205 184 209 228 243 213 204 213 218 211 204 200 198 197 190 191 192 190 189 187 175 168 167 155 153 143 124 102 94 83 78 71 66 64 64 76 88 84 82 93 85 94 98 90 75 70
220 227 229 225 199 225 243 255 246 218 221 225 220 212 207 204 196 189 192 194 191 191 193 183 180 175 170 167 168 160 143 126 102 76 69 69 62 57 70 74 76 83 94 96 108 100 101 90 72
223 232 235 218 209 243 260 262 253 230 224 225 223 215 210 207 198 193 194 196 198 194 194 189 189 181 180 180 179 173 155 146 115 92 75 66 63 53 58 76 79 77 84 135 129 119 54 21 298
227 239 245 243 222 234 266 256 234 221 221 221 225 223 217 211 209 200 197 199 199 200 197 192 191 185 181 176 165 151 146 160 149 137 118 68 62 63 51 55 69 78 185 194 212 215 233 275 290
229 232 241 235 241 247 247 273 237 213 216 218 218 216 216 212 210 207 202 201 201 203 197 195 191 188 182 181 182 182 192 194 200 188 158 144 106 84 70 359 280 186 245 240 250 253 270 270 281
225 203 221 233 248 259 242 262 249 198 221 218 213 209 211 209 208 206 206 204 203 200 196 196 191 190 184 186 189 199 202 207 192 177 169 174 150 118 97 129 215 247 259 265 281 282 282 276 283
175 174 186 219 241 249 242 248 257 211 224 218 206 208 209 206 204 204 203 202 201 198 194 195 194 193 189 190 194 201 202 202 191 193 190 193 181 180 154 155 211 251 286 279 273 269 273 287 289
203 218 226 222 224 242 198 242 255 35 265 258 248 222 206 200 198 198 197 196 197 197 195 195 196 196 194 197 202 204 206 206 201 202 203 207 201 198 192 210 236 257 283 303 296 282 279 282 285
212 227 243 255 251 251 208 240 240 90 281 262 255 229 200 191 191 192 194 197 199 200 200 200 200 200 196 199 205 208 205 208 209 208 210 214 211 205 201 208 211 255 274 276 293 291 288 285 282
210 223 250 267 269 265 244 232 248 192 216 220 211 202 201 193 192 194 193 194 199 202 203 204 203 200 199 200 201 203 204 204 209 211 208 211 206 196 194 199 202 218 253 279 283 285 288 290 290
240 212 215 236 252 253 249 245 239 189 207 200 212 214 205 196 193 193 192 193 197 200 201 201 200 199 197 197 196 195 200 202 206 206 203 204 202 194 196 203 211 221 233 245 260 278 298 286 285
193 203 222 234 247 260 262 249 204 237 236 246 254 246 214 199 197 192 190 193 196 193 194 196 196 194 193 195 194 194 198 200 203 205 204 204 202 198 201 206 214 223 236 248 251 265 266 273 271
231 227 224 237 240 247 267 269 129 234 271 268 284 291 239 207 199 195 190 189 191 193 194 195 197 195 192 194 194 196 199 202 206 210 207 203 204 205 207 207 213 224 239 250 261 267 263 266 270
Height
1514 1514 1514 1515 1514 1514 1521 1522 1520 1522 1523 1526 1527 1526 1526 1528 1530 1537 1538 1535 1535 1534 1533 1532 1531 1530 1529 1528 1528 1527 1526 1526 1526 1525 1525 1524 1524 1524 1523 1522 1522 1521 1521 1520 1520 1520 1519 1519 1519
1515 1515 1516 1516 1512 1520 1526 1522 1523 1524 1526 1528 1528 1528 1528 1531 1534 1536 1537 1536 1536 1536 1535 1534 1533 1532 1531 1530 1530 1529 1528 1528 1528 1527 1527 1526 1526 1525 1525 1524 1523 1523 1523 1522 1522 1522 1521 1521 1520
1515 1515 1518 1514 1514 1520 1526 1523 1524 1527 1528 1529 1529 1530 1531 1535 1537 1538 1538 1537 1537 1537 1536 1535 1534 1533 1533 1532 1532 1531 1531 1530 1530 1529 1529 1528 1528 1527 1527 1526 1525 1525 1524 1524 1524 1524 1523 1523 1522
1517 1518 1518 1516 1521 1522 1521 1523 1525 1527 1529 1530 1530 1532 1535 1538 1538 1539 1538 1539 1539 1539 1538 1537 1536 1535 1535 1534 1534 1533 1533 1532 1532 1531 1531 1530 1530 1529 1529 1528 1527 1527 1526 1526 1526 1525 1525 1524 1524
1517 1517 1516 1520 1522 1523 1523 1525 1526 1527 1529 1531 1531 1533 1537 1539 1539 1539 1540 1540 1540 1540 1539 1539 1537 1537 1537 1536 1536 1535 1534 1534 1534 1533 1533 1532 1532 1531 1531 1530 1529 1529 1528 1528 1527 1527 1527 1526 1526
1519 1516 1518 1524 1524 1524 1525 1527 1527 1528 1530 1532 1533 1534 1538 1540 1540 1541 1541 1541 1541 1541 1541 1540 1539 1539 1538 1538 1537 1537 1536 1536 1535 1535 1534 1534 1534 1533 1532 1532 1531 1530 1530 1530 1529 1529 1528 1528 1527
1519 1516 1519 1522 1525 1525 1527 1528 1528 1529 1531 1533 1534 1535 1539 1541 1541 1542 1542 1542 1542 1542 1542 1542 1542 1541 1540 1539 1539 1538 1538 1537 1537 1537 1536 1536 1535 1535 1534 1534 1533 1532 1532 1531 1531 1530 1530 1529 1529
1520 1518 1521 1522 1525 1526 1528 1529 1530 1531 1532 1535 1535 1535 1538 1541 1542 1543 1543 1543 1544 1544 1543 1543 1543 1543 1542 1542 1540 1540 1539 1539 1539 1538 1538 1537 1537 1537 1536 1535 1534 1534 1533 1533 1533 1532 1531 1531 1530
1520 1520 1523 1523 1524 1526 1528 1529 1532 1533 1534 1535 1536 1537 1539 1541 1542 1543 1544 1545 1545 1544 1545 1544 1544 1544 1543 1543 1542 1541 1541 1541 1540 1540 1539 1539 1539 1539 1538 1537 1536 1536 1535 1534 1534 1534 1533 1532 1532
1521 1521 1523 1523 1524 1525 1528 1529 1531 1532 1533 1535 1537 1538 1539 1541 1542 1544 1544 1545 1545 1545 1545 1545 1545 1545 1545 1544 1544 1543 1543 1542 1543 1542 1542 1541 1541 1540 1539 1538 1538 1537 1536 1536 1535 1535 1535 1535 1534
1521 1521 1524 1526 1527 1528 1529 1531 1532 1531 1532 1534 1536 1538 1540 1541 1543 1544 1545 1545 1546 1546 1546 1546 1546 1545 1545 1545 1545 1545 1544 1544 1544 1544 1543 1542 1542 1542 1541 1540 1540 1539 1539 1538 1537 1537 1537 1537 1536
1522 1524 1525 1527 1528 1529 1529 1531 1532 1532 1533 1535 1536 1538 1539 1541 1542 1544 1545 1545 1546 1546 1546 1546 1546 1546 1546 1546 1546 1545 1545 1545 1545 1545 1544 1544 1543 1543 1543 1542 1541 1541 1540 1539 1539 1539 1539 1538 1538
1523 1525 1527 1528 1529 1530 1531 1531 1532 1533 1534 1535 1536 1538 1539 1541 1542 1544 1545 1546 1546 1546 1546 1546 1546 1547 1547 1546 1546 1546 1546 1546 1546 1545 1545 1545 1544 1544 1544 1543 1542 1542 1541 1541 1540 1540 1540 1539 1539
1524 1526 1527 1529 1529 1530 1530 1531 1532 1533 1534 1535 1537 1538 1539 1541 1542 1543 1544 1545 1546 1546 1547 1546 1546 1547 1547 1547 1547 1547 1547 1546 1546 1546 1546 1545 1545 1545 1544 1544 1543 1543 1542 1542 1541 1541 1541 1540 1540
1526 1526 1527 1528 1528 1529 1530 1530 1530 1532 1533 1534 1536 1537 1539 1540 1542 1543 1544 1545 1546 1546 1546 1546 1546 1547 1547 1547 1547 1547 1547 1547 1547 1546 1546 1546 1546 1545 1545 1545 1544 1543 1543 1543 1542 1542 1541 1541 1540
1524 1524 1526 1526 1527 1528 1530 1529 1528 1531 1532 1533 1534 1536 1538 1539 1540 1541 1543 1544 1545 1545 1546 1546 1546 1546 1547 1547 1547 1547 1547 1547 1547 1546 1546 1546 1546 1546 1545 1545 1544 1544 1543 1543 1542 1542 1542 1542 1541
1522 1524 1525 1525 1525 1526 1526 1526 1527 1529 1531 1531 1533 1534 1536 1537 1539 1540 1541 1543 1544 1544 1545 1546 1546 1546 1546 1546 1546 1547 1547 1547 1547 1547 1546 1546 1546 1546 1546 1545 1545 1544 1544 1543 1543 1543 1542 1542 1541
1523 1521 1523 1523 1522 1524 1525 1524 1525 1527 1529 1529 1530 1532 1533 1535 1537 1538 1540 1541 1542 1543 1544 1545 1545 1545 1546 1546 1546 1546 1547 1546 1546 1546 1546 1546 1546 1546 1545 1545 1545 1544 1544 1543 1543 1543 1542 1542 1541
1518 1520 1521 1520 1521 1523 1522 1521 1521 1524 1525 1526 1527 1528 1530 1532 1535 1536 1538 1539 1540 1541 1542 1543 1544 1545 1545 1545 1546 1546 1546 1546 1546 1546 1546 1546 1546 1545 1545 1545 1544 1544 1544 1543 1543 1542 1542 1542 1541
1518 1520 1520 1520 1521 1522 1520 1519 1517 1519 1521 1522 1524 1525 1527 1530 1532 1534 1536 1537 1539 1540 1541 1542 1543 1543 1544 1544 1545 1545 1545 1546 1545 1545 1545 1545 1545 1545 1544 1544 1544 1543 1543 1542 1542 1542 1541 1541 1541
1518 1518 1518 1520 1521 1520 1521 1517 1513 1514 1518 1520 1522 1523 1525 1527 1529 1531 1533 1535 1536 1537 1539 1540 1541 1542 1542 1543 1544 1544 1544 1545 1545 1545 1544 1544 1544 1544 1543 1543 1543 1542 1542 1542 1541 1541 1541 1541 1540
1518 1516 1518 1520 1521 1518 1520 1520 1510 1510 1513 1516 1518 1520 1522 1524 1526 1528 1530 1532 1533 1535 1537 1538 1539 1540 1541 1542 1542 1543 1543 1544 1544 1544 1544 1543 1543 1543 1542 1542 1542 1542 1541 1541 1540 1540 1540 1540 1539
1514 1516 1517 1518 1518 1519 1517 1519 1508 1508 1510 1510 1513 1516 1518 1520 1523 1525 1527 1529 1531 1532 1534 1535 1537 1538 1539 1540 1541 1541 1542 1543 1543 1543 1543 1543 1542 1542 1541 1541 1541 1541 1540 1540 1539 1539 1538 1538 1538
1515 1517 1517 1517 1517 1523 1515 1518 1512 1503 1505 1506 1510 1513 1515 1517 1520 1522 1524 1526 1528 1530 1531 1533 1534 1536 1537 1538 1539 1540 1540 1541 1541 1541 1542 1542 1541 1541 1541 1540 1540 1539 1539 1538 1538 1537 1537 1537 1536
1514 1516 1523 1524 1523 1518 1512 1515 1508 1502 1505 1507 1509 1511 1513 1515 1517 1519 1521 1522 1524 1526 1528 1530 1531 1533 1534 1535 1537 1538 1538 1539 1539 1540 1540 1540 1540 1540 1539 1539 1539 1538 1538 1537 1536 1536 1535 1535 1534
1510 1511 1521 1527 1523 1514 1513 1512 1503 1504 1507 1508 1509 1510 1511 1513 1514 1516 1517 1519 1521 1523 1525 1527 1529 1530 1531 1533 1534 1535 1536 1537 1537 1538 1538 1538 1538 1538 1538 1538 1537 1537 1536 1536 1535 1534 1534 1533 1533
1509 1509 1507 1512 1514 1518 1509 1504 1502 1503 1505 1506 1508 1509 1510 1511 1512 1514 1515 1517 1518 1520 1522 1523 1525 1527 1528 1530 1531 1533 1534 1535 1535 1536 1536 1536 1537 1536 1536 1536 1536 1535 1535 1534 1533 1533 1532 1532 1531
1507 1506 1510 1513 1521 1521 1512 1507 1503 1502 1503 1504 1505 1507 1508 1509 1511 1512 1513 1514 1516 1517 1519 1521 1522 1524 1525 1527 1528 1530 1531 1532 1533 1533 1534 1534 1534 1534 1534 1534 1534 1533 1533 1532 1532 1531 1530 1530 1529
1508 1509 1508 1508 1510 1517 1517 1509 1498 1500 1501 1502 1504 1506 1507 1508 1509 1510 1511 1512 1513 1515 1516 1517 1519 1521 1522 1524 1525 1527 1528 1530 1530 1531 1531 1532 1532 1532 1532 1532 1532 1531 1531 1531 1530 1530 1529 1528 1528
1502 1502 1504 1511 1510 1509 1511 1507 1498 1500 1501 1503 1504 1505 1506 1506 1507 1508 1509 1510 1511 1512 1513 1514 1516 1518 1519 1520 1522 1523 1525 1527 1527 1528 1529 1529 1529 1529 1529 1529 1529 1529 1529 1528 1528 1528 1527 1526 1526